RH
24 23 22 20 17 14 13 9 5 4 3 3 2 2 2 2 1 1 1 1 1 2 3 10 8 11 42 22 49 92 90 90 97 95 51 16 21 12 41 33 15 21 19 27 20
22 22 20 19 18 15 13 10 12 4 4 3 2 2 2 2 1 1 1 1 2 2 3 3 6 16 27 28 73 96 97 90 76 98 97 20 14 58 93 57 31 22 19 40 32
17 20 20 19 18 17 14 9 9 10 4 3 3 2 2 2 2 1 1 1 2 3 4 7 6 26 93 99 59 88 62 62 68 36 60 55 17 14 16 27 33 20 13 32 37
12 16 17 17 17 16 15 12 8 11 6 4 3 2 2 2 2 2 2 1 2 3 4 4 5 88 98 99 26 100 40 20 22 29 48 26 28 20 14 13 25 13 10 23 33
11 12 15 15 14 15 15 11 7 9 8 5 3 3 2 2 2 2 2 1 2 2 2 3 65 81 98 60 61 98 53 20 15 92 25 91 90 71 32 12 8 5 11 22 37
9 10 11 14 14 14 14 7 7 7 7 5 4 3 2 2 2 2 2 2 2 2 2 2 11 16 73 75 92 73 44 43 79 44 86 50 80 97 28 15 10 8 14 21 36
9 10 11 12 14 15 12 6 7 6 5 5 4 3 3 3 3 2 2 2 2 2 2 2 2 5 41 90 8 51 86 76 63 37 35 58 94 63 22 14 11 10 15 18 22
14 15 15 15 13 8 5 5 6 5 5 4 3 3 3 2 2 2 2 2 2 2 2 2 2 2 14 27 46 80 80 83 61 14 9 17 47 36 6 11 12 13 13 10 10
3 3 3 2 2 3 4 5 5 4 3 2 2 3 3 2 2 2 2 2 2 2 2 2 3 3 22 85 93 76 73 74 57 12 44 39 8 4 4 9 58 18 19 15 11
7 5 3 2 2 3 4 5 4 2 2 2 2 2 3 3 2 2 3 2 2 2 2 2 4 8 56 86 92 87 60 59 64 31 8 7 4 3 4 10 47 18 23 19 19
7 7 4 2 2 3 4 4 2 2 2 2 2 3 3 3 2 3 3 2 2 2 2 3 4 38 93 86 84 80 54 48 60 18 8 7 4 4 6 14 56 30 28 20 21
7 7 5 2 2 3 3 2 2 2 3 3 3 3 3 3 3 3 3 2 2 2 2 5 7 78 92 80 62 61 51 60 64 38 14 58 53 36 21 30 28 39 49 58 22
12 7 7 3 2 3 2 2 2 3 3 3 3 3 3 3 2 3 3 2 2 2 2 14 65 61 34 14 5 8 54 56 52 33 8 80 64 65 48 47 44 42 44 52 24
14 10 7 5 2 3 3 3 2 3 3 3 3 3 3 3 2 2 2 2 2 2 2 15 77 58 4 4 16 53 58 55 22 8 60 63 73 69 79 61 63 48 43 47 25
11 12 8 7 4 3 3 3 3 3 20 7 3 3 3 3 3 2 2 2 2 3 4 38 28 64 4 5 38 49 52 15 43 28 53 63 66 36 87 68 62 58 44 40 34
10 11 10 7 6 3 3 3 3 3 37 27 4 3 3 3 3 2 3 3 2 3 3 43 36 22 6 4 5 5 17 34 60 62 55 48 63 75 48 59 60 63 44 35 37
9 10 11 8 6 4 3 3 4 8 49 34 5 3 3 3 3 3 3 3 3 3 3 3 3 3 3 5 22 9 46 61 72 68 55 54 60 73 68 52 61 66 38 59 66
9 10 11 9 7 5 4 4 4 17 74 67 19 4 4 3 3 3 3 3 3 4 31 34 26 22 5 5 20 56 57 55 74 71 72 64 71 70 67 73 75 75 57 57 74
11 11 12 10 8 6 5 4 14 65 60 70 59 34 6 36 27 7 3 3 5 3 36 42 48 46 51 28 10 61 63 57 66 55 55 71 71 75 51 78 78 82 76 68 73
13 13 13 11 10 8 6 7 52 71 87 82 73 66 48 45 26 35 18 16 21 16 46 69 73 74 75 20 37 60 86 73 83 57 57 97 86 66 92 72 66 63 68 64 56
16 16 15 13 11 10 9 13 63 73 75 53 85 75 59 50 46 51 40 40 38 42 14 54 60 72 79 35 58 66 50 50 77 66 39 55 96 90 93 56 52 43 46 44 40
17 16 16 14 13 13 11 14 68 73 36 21 20 78 93 76 62 49 45 55 52 64 34 5 39 57 58 89 74 48 55 41 49 62 83 80 92 91 85 93 72 57 50 48 38
17 16 16 16 16 16 17 14 78 38 19 28 11 45 90 74 70 59 60 55 64 41 17 56 52 49 60 74 88 88 77 83 98 78 92 97 94 81 95 69 32 28 26 23 14
18 17 18 18 19 16 68 75 56 17 20 80 85 45 87 84 86 67 70 69 48 40 15 13 40 77 71 85 76 99 61 61 82 81 96 97 90 89 69 41 30 20 13 6 4
22 24 94 22 24 22 26 64 81 23 15 19 34 47 55 53 85 76 73 65 69 28 20 17 18 85 65 65 50 80 66 60 77 94 60 54 81 87 31 22 17 9 5 4 3
23 19 22 19 18 18 24 19 20 28 70 20 20 26 38 98 94 91 88 98 69 43 22 21 30 74 92 56 57 98 98 52 87 74 73 41 64 26 22 27 14 5 4 4 4
30 25 24 23 24 24 27 26 25 24 74 88 91 42 98 72 84 72 95 79 84 95 36 45 87 96 80 90 96 61 97 100 94 96 41 37 28 24 22 18 11 5 5 5 4
Wind_Speed
7 5 4 2 1 1 1 2 2 4 4 2 3 1 2 2 4 6 5 6 8 12 14 16 16 15 14 21 14 16 16 5 9 11 13 11 12 16 9 11 13 12 12 10 8
9 7 5 4 2 3 4 5 4 2 3 3 2 1 2 3 4 6 5 8 10 11 12 15 19 16 18 15 8 11 8 5 8 3 8 10 13 14 24 16 12 11 11 10 9
13 11 9 7 6 5 7 7 7 5 2 3 1 0 1 3 5 5 6 8 11 11 14 11 16 21 11 6 3 5 1 7 5 2 10 10 12 10 15 15 14 15 12 11 9
17 15 13 11 10 9 10 11 8 7 5 2 1 2 2 3 5 6 6 8 9 11 13 13 16 23 9 6 3 5 4 2 4 6 3 11 14 13 14 16 14 13 10 10 10
20 19 17 14 13 13 13 14 10 8 7 5 3 3 3 3 4 5 7 7 9 10 10 10 12 21 4 6 9 7 4 3 6 4 11 15 14 8 16 17 17 16 11 9 9
20 20 19 17 16 15 15 15 10 9 8 7 6 4 4 4 5 6 7 8 9 10 10 9 12 9 10 9 4 8 5 5 6 6 12 4 17 12 18 14 14 15 11 10 10
18 18 19 19 18 18 18 14 11 10 9 8 7 6 6 7 7 8 8 9 10 12 11 8 11 15 12 4 4 10 5 8 17 4 6 10 11 11 12 11 12 15 15 14 12
20 20 21 22 23 21 18 15 13 12 11 10 9 8 8 8 9 10 11 10 11 11 9 9 12 6 10 15 20 12 3 10 23 7 9 8 19 15 12 12 11 14 16 15 14
19 21 21 22 21 18 17 16 14 13 12 11 10 9 9 9 9 9 11 11 11 11 10 11 14 15 20 14 2 7 6 7 20 6 2 7 15 11 10 8 8 12 11 14 15
17 16 17 17 17 16 16 15 13 12 12 12 11 10 9 9 9 10 12 12 12 12 12 11 14 17 22 4 12 10 4 4 8 15 13 11 9 8 7 4 5 6 9 11 13
18 16 15 14 14 13 14 13 11 11 11 11 10 10 8 9 10 11 12 12 13 14 15 14 15 14 1 12 6 10 7 3 9 13 13 15 13 7 3 2 2 5 10 9 10
17 17 15 13 12 12 12 11 10 9 9 9 9 8 9 9 10 11 11 11 13 15 16 16 12 13 14 20 17 17 11 5 13 24 11 20 16 8 4 3 2 5 7 9 9
17 17 16 14 12 13 12 11 11 9 8 8 8 8 8 8 10 11 11 13 16 16 15 14 3 12 12 13 11 5 3 14 21 20 14 9 20 9 5 4 4 5 7 8 10
19 17 17 15 14 14 14 12 11 10 9 7 8 8 8 8 9 10 12 15 16 16 15 12 15 19 12 10 9 2 13 24 22 14 7 22 24 20 15 8 2 5 5 4 6
19 19 18 18 16 15 15 13 12 10 4 9 7 7 8 8 8 10 12 14 17 15 14 9 14 12 11 10 9 10 17 14 11 11 11 13 25 25 22 8 2 5 3 6 5
20 20 20 19 18 18 17 15 14 12 7 11 7 8 8 8 8 9 14 16 17 16 13 15 14 14 13 10 9 7 9 6 9 9 13 13 26 23 21 8 7 4 9 3 4
22 21 22 21 19 19 19 18 16 11 11 14 9 9 10 9 9 10 13 14 14 12 9 10 10 11 11 9 10 2 5 8 16 20 14 16 21 24 15 11 9 5 6 5 3
22 22 23 22 21 21 21 20 17 14 6 14 14 12 11 11 11 12 13 15 15 12 6 8 14 13 10 7 7 10 11 13 32 9 13 24 27 19 18 10 12 8 8 12 9
22 22 23 23 23 23 22 20 19 7 7 11 9 11 11 13 10 14 14 14 14 11 14 8 15 13 12 19 9 4 10 15 15 14 11 25 26 14 11 13 12 12 12 13 16
21 22 23 24 24 24 23 22 22 13 20 13 12 11 11 14 13 15 14 15 14 15 22 11 13 15 12 14 13 15 15 7 16 23 22 5 21 21 18 16 14 17 16 17 20
19 22 23 24 25 26 22 23 20 13 34 26 16 11 13 15 16 14 13 9 15 17 26 20 14 22 18 13 8 18 21 19 18 22 29 34 25 34 23 16 19 21 21 21 23
18 21 23 24 25 24 24 26 16 16 21 25 25 26 10 17 17 15 12 17 19 17 19 24 16 14 21 9 19 23 20 16 16 25 15 20 21 26 6 3 8 13 19 20 22
18 18 21 23 22 20 20 26 21 23 20 21 23 28 15 15 20 16 21 27 30 19 20 17 18 19 12 24 31 20 16 23 12 24 20 20 31 5 10 20 15 17 22 22 24
19 16 19 21 24 26 21 21 24 20 23 16 16 23 18 21 15 20 27 27 30 29 28 25 19 15 25 35 38 25 21 26 6 9 14 28 32 26 22 13 14 23 23 23 25
22 22 18 23 22 23 25 22 18 21 24 24 23 27 25 29 22 31 23 35 24 30 24 23 22 14 26 31 32 32 18 26 16 11 18 19 19 33 36 28 23 22 21 25 24
27 26 23 24 27 29 29 26 22 19 16 23 22 21 20 21 36 32 28 29 31 30 27 21 20 15 27 34 30 3 12 15 18 28 24 25 24 33 31 28 29 25 23 24 26
26 27 25 24 24 22 24 24 21 20 15 19 16 19 17 41 42 32 14 32 22 20 26 21 16 22 26 25 28 22 11 13 13 28 27 27 29 30 29 29 29 28 26 27 28
Wind_Direction
195 186 183 164 136 14 345 336 345 35 30 36 53 36 86 86 127 137 117 126 127 141 144 143 131 113 115 91 93 83 68 162 62 326 356 38 19 21 351 16 357 17 21 16 21
215 214 215 217 244 299 333 297 292 318 15 18 53 61 92 119 133 144 126 134 141 149 152 155 127 118 91 94 93 80 121 22 119 319 345 18 35 27 334 356 18 20 22 20 15
230 229 236 248 263 289 305 310 275 276 306 352 2 174 104 133 144 155 139 145 151 150 146 162 124 102 65 98 173 142 178 158 319 268 30 16 11 31 355 2 15 18 16 19 16
238 239 243 252 265 276 292 305 272 257 267 289 276 228 191 147 166 161 155 155 159 158 158 167 135 91 86 247 150 346 324 333 333 16 36 9 32 356 358 2 3 8 16 22 20
245 243 247 254 262 270 284 298 271 252 248 258 254 238 218 190 174 175 166 170 166 168 173 178 116 123 167 180 88 199 275 4 22 30 21 25 325 341 7 8 1 7 15 32 30
246 246 248 254 261 268 280 286 262 250 245 249 248 239 235 220 189 187 180 184 182 176 175 175 158 161 149 158 188 248 8 14 32 36 315 238 266 89 350 2 6 12 26 28 36
244 245 249 254 259 265 275 269 254 250 248 250 248 232 226 228 212 198 193 191 196 186 183 172 171 162 133 0 50 80 339 349 349 343 298 299 310 16 337 352 357 13 22 31 31
252 252 253 258 263 265 261 257 252 253 254 253 247 235 229 227 221 205 202 202 203 191 190 177 170 164 142 119 61 52 237 302 313 326 327 311 314 345 345 339 357 11 24 27 33
254 256 259 261 262 257 247 249 252 254 248 243 236 226 222 222 224 216 206 210 206 190 183 175 166 154 116 71 273 151 236 266 312 325 20 273 317 326 341 6 275 6 20 31 36
256 260 261 260 256 250 239 245 249 244 239 230 222 219 225 215 213 216 211 209 197 184 179 171 159 149 85 53 287 171 183 277 280 300 316 307 332 339 4 59 269 347 9 23 37
255 255 259 259 244 237 234 244 243 239 225 217 216 218 218 211 211 211 214 214 193 181 174 169 164 113 326 197 228 192 204 276 293 310 312 308 307 339 14 167 199 16 4 20 38
252 250 253 254 238 227 227 227 234 226 212 210 210 213 215 212 209 210 213 207 190 180 181 168 180 139 248 251 238 243 239 338 264 295 297 294 322 339 22 179 185 62 42 26 12
244 244 247 244 234 223 219 219 220 222 218 214 209 211 215 215 212 209 210 195 187 189 185 181 200 292 227 208 203 201 296 253 253 279 292 232 278 110 153 115 112 80 61 35 353
238 237 236 240 231 218 212 214 217 218 226 217 213 208 208 208 207 199 200 189 187 186 192 185 158 237 215 215 205 132 236 255 278 281 275 276 270 301 289 122 102 46 49 352 329
234 232 230 228 229 217 212 210 213 212 195 214 215 216 216 216 196 192 193 196 185 189 196 213 205 229 234 229 230 220 262 283 271 280 242 247 262 287 23 102 223 302 336 326 295
233 228 226 224 221 219 214 211 209 203 222 241 207 220 216 213 205 196 189 194 194 190 196 172 242 221 237 240 248 268 249 241 318 307 290 299 265 274 322 226 224 242 325 299 304
233 224 224 220 217 215 213 208 202 183 230 266 227 218 219 215 218 202 199 202 200 206 213 244 253 245 244 250 248 203 246 308 263 236 257 250 243 259 285 257 229 257 310 313 339
230 222 220 217 215 212 208 205 203 182 209 268 242 227 223 226 228 219 214 209 214 188 237 298 282 289 252 252 235 266 275 261 295 241 249 253 259 270 284 231 237 235 286 297 301
227 219 216 216 213 209 207 201 171 109 188 235 219 215 215 213 213 234 225 223 220 207 170 228 261 225 224 292 250 206 246 277 297 260 280 260 264 258 229 215 253 249 258 281 298
223 216 214 212 212 210 204 180 163 186 183 201 208 219 211 210 216 243 229 230 217 220 172 178 286 293 257 261 237 205 244 292 264 269 243 219 248 257 203 203 237 252 254 264 275
221 214 211 210 211 213 201 190 183 241 197 191 178 222 217 218 228 224 211 226 210 231 200 195 203 259 237 262 238 248 232 238 253 273 245 240 273 312 226 177 233 249 259 263 268
221 217 213 209 210 212 204 200 217 221 218 214 194 195 219 219 242 207 213 234 244 199 226 217 213 240 288 270 232 269 262 273 298 263 314 326 283 292 255 247 278 279 279 275 277
222 220 212 212 209 212 212 208 236 227 218 217 210 190 198 219 246 206 232 225 227 247 228 207 233 235 235 254 240 230 232 246 259 299 330 304 299 327 306 307 302 293 281 284 290
218 211 213 212 214 219 188 240 238 227 217 210 221 203 227 200 214 224 236 234 237 244 231 226 210 225 247 266 261 201 220 247 165 240 283 329 336 332 316 296 296 278 291 297 291
211 197 189 209 216 218 224 220 229 224 228 227 225 203 211 208 229 204 218 252 239 233 225 220 221 244 245 264 287 235 249 254 230 255 255 253 276 286 294 309 308 299 292 289 288
218 224 223 217 215 216 222 231 230 225 229 230 232 219 195 225 231 222 195 219 248 238 222 219 230 226 283 277 275 122 311 276 311 287 280 284 281 281 290 303 298 294 286 287 285
218 221 221 221 226 229 230 238 235 230 206 233 216 204 223 228 228 243 241 230 208 225 236 233 223 232 238 266 316 308 245 250 262 263 286 285 283 284 286 290 291 287 293 289 288